EDT,Max TemperatureF,Mean TemperatureF,Min TemperatureF,Max Dew PointF,MeanDew PointF,Min DewpointF,Max Humidity, Mean Humidity, Min Humidity, Max Sea Level PressureIn, Mean Sea Level PressureIn, Min Sea Level PressureIn, Max VisibilityMiles, Mean VisibilityMiles, Min VisibilityMiles, Max Wind SpeedMPH, Mean Wind SpeedMPH, Max Gust SpeedMPH,PrecipitationIn, CloudCover, Events, WindDirDegrees
2011-10-1,66,60,55,61,54,48,100,79,52,29.81,29.75,29.67,10,10,10,10,2,20,0.00,4,Rain,289
2011-10-2,62,53,44,52,46,41,100,79,48,30.00,29.91,29.85,10,10,10,14,2,18,0.00,4,,282
2011-10-3,64,55,46,48,46,45,100,78,49,30.12,30.05,30.00,10,10,10,15,3,22,0.00,5,Rain,241
2011-10-4,69,58,46,54,49,46,100,76,49,30.17,30.14,30.10,10,10,1,15,2,21,0.00,2,,312
2011-10-5,77,62,48,57,52,48,100,73,41,30.22,30.18,30.14,10,9,5,12,2,,0.00,0,,316
2011-10-6,73,62,50,61,52,46,100,74,43,30.36,30.30,30.23,10,10,4,13,3,17,0.00,1,,42
2011-10-7,73,58,44,55,50,43,100,74,38,30.47,30.43,30.37,10,10,2,9,2,,0.00,0,,40
2011-10-8,73,60,46,59,52,45,100,79,50,30.50,30.47,30.45,10,10,10,13,2,12,0.00,1,,59
2011-10-9,78,62,46,63,51,46,100,73,36,30.47,30.42,30.34,10,10,4,9,1,,0.00,0,,53
2011-10-10,78,64,50,64,57,48,100,79,44,30.32,30.23,30.14,10,9,0,9,0,,0.00,1,Fog,62
2011-10-11,73,66,60,66,64,59,100,87,69,30.12,30.08,30.01,10,8,2,10,1,,0.00,3,Rain,52
2011-10-12,73,71,69,70,69,66,100,93,88,29.97,29.89,29.81,10,8,2,13,2,17,0.00,8,Rain,95
2011-10-13,80,74,68,72,70,66,100,94,74,29.80,29.73,29.63,10,5,0,12,1,,0.70,6,Fog-Rain,154
2011-10-14,75,70,66,68,62,48,100,81,41,29.64,29.59,29.55,10,8,5,17,4,26,0.00,3,,233
2011-10-15,75,62,50,52,46,37,88,60,25,29.92,29.87,29.82,10,10,10,17,6,26,0.00,0,,221
2011-10-16,73,58,44,52,46,43,100,61,33,30.12,30.03,29.95,10,10,10,12,4,,0.00,0,,223
2011-10-17,84,70,57,64,55,52,88,61,37,29.91,29.86,29.81,10,9,7,13,8,18,0.00,0,,216
2011-10-18,84,72,60,64,61,57,94,72,40,29.89,29.84,29.79,10,9,5,13,7,16,0.00,0,,187
2011-10-19,78,74,69,73,71,68,100,93,83,29.72,29.49,29.31,10,9,2,14,7,21,0.44,8,Rain,134
2011-10-20,73,62,51,68,48,45,83,66,49,29.85,29.65,29.38,10,10,10,21,14,30,0.00,2,,219
2011-10-21,68,57,46,54,46,45,93,73,46,30.07,30.01,29.92,10,10,10,10,5,,0.00,0,,233
2011-10-22,66,55,44,52,48,45,100,76,49,30.15,30.11,30.08,10,10,4,9,1,,0.00,4,,17
2011-10-23,66,54,42,52,46,41,100,77,46,30.17,30.13,30.11,10,10,2,9,2,17,0.00,0,,55
2011-10-24,69,56,42,55,47,41,100,79,43,30.14,30.09,30.01,10,9,4,8,1,9,0.00,0,,16
2011-10-25,69,58,46,52,45,36,100,67,28,30.24,30.16,30.06,10,9,2,13,3,23,0.00,0,,325
2011-10-26,75,58,42,55,50,43,100,78,47,30.15,30.02,29.89,10,10,5,17,4,25,0.00,0,,206
2011-10-27,78,68,57,55,54,54,88,65,42,29.88,29.79,29.68,10,10,10,18,9,24,0.00,0,,213
2011-10-28,60,54,48,48,44,41,100,73,58,30.19,30.11,29.97,10,9,4,15,10,25,0.00,8,Rain,7
2011-10-29,62,53,44,61,51,37,100,91,76,30.04,29.87,29.75,10,9,3,21,10,28,0.40,8,Rain,340
2011-10-30,55,45,35,37,34,27,100,69,33,30.35,30.24,30.06,10,10,10,13,5,16,0.00,0,,334
2011-10-31,62,48,33,50,40,32,100,78,52,30.38,30.31,30.17,10,10,10,14,2,18,0.00,1,,93